Regional Weather Roundup
Issued by NWS

Home | Current Version | Previous Version | Graphics & Text | Print | Product List | Glossary On
Versions: 1 2 3 4 5 6 7 8 9 10 11 12 13 14 15 16 17 18 19 20 21 22 23 24 25 26 27 28 29 30 31 32 33 34 35 36 37 38 39 40 41 42 43 44 45 46 47 48 49 50
000
ASUS45 KSLC 190510
RWRUT

UTAH REGIONAL WEATHER ROUNDUP
NATIONAL WEATHER SERVICE SALT LAKE CITY UT
1100 PM MDT SAT OCT 18 2014

UTZ001>011-023>025-190600-

NORTHERN UTAH

CITY           SKY/WX    TMP DP  RH WIND       PRES   REMARKS
BRIGHAM CITY   CLEAR     50  39  64 CALM      30.08R
HILL AFB       CLEAR     55  32  42 E14       30.09R
LOGAN          CLEAR     45  36  70 CALM      30.08R
OGDEN          CLEAR     53  35  50 S9        30.07R
PROVO AIRPORT  CLEAR     52  39  62 SE5       30.09R
SALT LAKE CITY CLEAR     54  42  64 S3        30.06S
VERNAL         PTCLDY    47  33  58 W6        30.11S
WENDOVER       CLEAR     52  34  50 CALM      30.06S
HEBER CITY     CLEAR     36  30  80 CALM      30.14R
WEST JORDAN    CLEAR     52  39  62 CALM      30.09S

$$

UTZ012>022-026-027-190600-

SOUTHERN/CENTRAL UTAH

CITY           SKY/WX    TMP DP  RH WIND       PRES   REMARKS
BLANDING       CLEAR     53  32  45 N8        30.20S
BRYCE CANYON   PTCLDY    41  34  76 W9        30.22S
CEDAR CITY     CLOUDY    54  44  69 S3        30.10S
DELTA          CLEAR     51  31  47 N3        30.08R
HANKSVILLE       N/A     61  32  33 CALM      30.07F
MILFORD        MOCLDY    57  37  47 W8        30.07F
MOAB/CYNLANDS  CLEAR     52  33  48 CALM      30.05S
PRICE          CLEAR     51  28  41 N9        30.13S
ST GEORGE      CLEAR     70  36  28 S5        29.96S
KANAB            N/A     57  37  47 NW12      30.10S

$$

REGIONAL REPORTS     COLORADO/ARIZONA

CITY           SKY/WX    TMP DP  RH WIND       PRES   REMARKS
CRAIG, CO      PTCLDY    39  30  70 E3        30.17S
GRAND JUNCTION MOCLDY    56  33  42 CALM      30.08F
RIFLE          MOCLDY    52  37  56 CALM      30.13S
MONTROSE       CLOUDY    56  37  49 SE8       30.16S
CORTEZ         CLOUDY    50  41  71 CALM      30.16R
PAGE, AZ       NOT AVBL
GRAND CANYON   PTCLDY    44  28  53 CALM      30.16S
KINGMAN        CLEAR     60  43  53 E7        29.96S
FLAGSTAFF      PTCLDY    44  38  79 CALM      30.16F

$$

REGIONAL REPORTS    NEVADA/IDAHO/WYOMING

CITY           SKY/WX    TMP DP  RH WIND       PRES   REMARKS
LAS VEGAS, NV  PTCLDY    74  41  30 SW9       29.86S
ELY            CLEAR     44  30  57 S12       30.15R
ELKO           CLEAR     48  18  30 E6        30.07R
POCATELLO, ID  CLEAR     46  35  65 CALM      30.09S
BURLEY         CLEAR     43  32  65 CALM      30.07S
EVANSTON, WY   CLEAR     52  29  41 S3        30.20R
ROCK SPRINGS   PTCLDY    45  27  49 NW9       30.16S
KEMMERER       CLEAR     43  28  56 NW7       30.20S

$$



USA.gov is the U.S. government's official web portal to all federal, state and local government web resources and services.